User: anonymous   Login
Location: *
(34.6903°N, 135.5184°E)
Time: 23:11:35
(UTC+00:00)
Language:

Cosmos 773 Rocket - Orbit

View from above orbital plane
View from above orbital plane
View from above satellite
View from above satellite

Ground track
Ground track

The orbit data is extracted from the following two-line orbital elements,

1  8344U 75094B   19326.18040656 -.00000021  00000-0  18876-5 0  9994
2  8344  74.0562 289.2563 0022647 325.0375  34.9291 14.39142644313425
Epoch (UTC): 22 November 2019 04:19:47
Eccentricity: 0.0022647
inclination: 74.0562°
perigee height: 745 km
apogee height: 777 km
right ascension of ascending node: 289.2563°
argument of perigee: 325.0375°
revolutions per day: 14.39142644
mean anomaly at epoch: 34.9291°
orbit number at epoch: 31342

The dashed part of the orbit path shows where the satellite is in the earth's shadow,  

DLR